Regional Weather Roundup
Issued by NWS Tiyan, Guam

Current Version | Previous Version | Text Only | Print | Product List | Glossary On
Versions: 1 2 3 4 5 6 7 8 9 10 11 12 13 14 15 16 17 18 19 20 21 22 23 24 25 26 27 28 29 30 31 32 33 34 35 36 37 38 39 40 41 42 43 44 45 46 47 48 49 50
000
ASGM40 PGUM 090612
RWRGUM
WEATHER ROUNDUP FOR THE MARIANAS
NATIONAL WEATHER SERVICE TIYAN GU
400 PM CHST FRI DEC 09 2016

GUZ001>004-090700-
MARIANA ISLANDS-

CITY           SKY/WX    TMP DP  RH WIND       PRES   REMARKS
GUAM AIRPORT   MOSUNNY   84  73  70 E10       29.78R HX  91
ANDERSEN AFB   MOSUNNY   82  73  74 E10       29.79S
ROTA AIRPORT   MOSUNNY   82  73  74 E12       29.78R
TINIAN AP      MOSUNNY   86  77  74 E12       29.76R HX  97
SAIPAN AP      CLOUDY    82  75  78 E13       29.77S

$$




USA.gov is the U.S. government's official web portal to all federal, state and local government web resources and services.